This demonstration page uses our WeatherBlox Daily Observations layout. Learn more.

Hourly Observations for March 22, 2017

Temp ( °F °C ) Dew Point ( °F °C ) Humidity (%) Winds ( mph kmh ) Pressure ( in mb ) Visibility ( mi km ) Precip ( " mm )
12:15 am 00:15 Partly Cloudy 35 1.7 25 -3.8 67 67 ENE 13 20 30.45 1031 10 16.0934 0 0
12:35 am 00:35 Mostly Cloudy 35 1.6 25 -3.7 68 68 E 12 19 30.45 1031 10 16.0934 0 0
12:55 am 00:55 Mostly Cloudy 35 1.6 25 -3.8 68 68 ENE 9 15 30.45 1031 10 16.0934 0 0
1:15 am 01:15 Mostly Cloudy 35 1.7 25 -3.9 67 67 ENE 6 9 30.45 1031 10 16.0934 0 0
1:35 am 01:35 Mostly Cloudy 36 2 25 -4 65 65 ENE 8 13 30.45 1031 10 16.0934 0 0
1:55 am 01:55 Mostly Cloudy 36 2 24 -4.3 63 63 ENE 12 19 30.45 1031 10 16.0934 0 0
2:15 am 02:15 Partly Cloudy 35 1.7 24 -4.5 64 64 ENE 12 19 30.42 1030 10 16.0934 0 0
2:35 am 02:35 Mostly Cloudy 35 1.6 23 -5 62 62 E 10 17 30.42 1030 10 16.0934 0 0
2:55 am 02:55 Mostly Cloudy 35 1.6 23 -5.2 61 61 E 13 20 30.42 1030 10 16.0934 0 0
3:15 am 03:15 Mostly Cloudy 35 1.5 22 -5.3 61 61 E 13 20 30.42 1030 10 16.0934 0 0
3:35 am 03:35 Cloudy 35 1.5 23 -5.1 62 62 E 13 20 30.39 1029 10 16.0934 0 0
3:55 am 03:55 Mostly Cloudy 34 1.2 23 -5 64 64 E 14 22 30.39 1029 10 16.0934 0 0
4:15 am 04:15 Partly Cloudy 34 1.1 23 -5.1 64 64 E 14 22 30.39 1029 10 16.0934 0 0
4:35 am 04:35 Clear 34 1 23 -5.2 64 64 E 9 15 30.39 1029 10 16.0934 0 0
4:55 am 04:55 Partly Cloudy 34 1.1 23 -5 64 64 E 8 13 30.39 1029 10 16.0934 0 0
5:15 am 05:15 Mostly Cloudy 34 1.2 23 -5 64 64 ESE 7 11 30.39 1029 10 16.0934 0 0
5:35 am 05:35 Cloudy 34 1.3 23 -5 63 63 ESE 9 15 30.39 1029 10 16.0934 0 0
5:55 am 05:55 Cloudy 35 1.5 23 -5 62 62 ESE 12 19 30.42 1030 10 16.0934 0 0
6:15 am 06:15 Cloudy 34 1.3 23 -5.1 63 63 ESE 12 19 30.39 1029 10 16.0934 0 0
6:35 am 06:35 Cloudy 34 1.3 23 -5 63 63 ESE 13 20 30.39 1029 10 16.0934 0 0
6:55 am 06:55 Cloudy 34 1.2 23 -5.1 63 63 ESE 16 26 30.39 1029 10 16.0934 0 0
7:15 am 07:15 Cloudy 34 1.1 23 -5 64 64 ESE 13 20 30.39 1029 10 16.0934 0 0
7:35 am 07:35 Cloudy 34 1 23 -5.1 64 64 ESE 16 26 30.39 1029 10 16.0934 0 0
7:55 am 07:55 Cloudy 34 1 23 -5.1 64 64 ESE 14 22 30.39 1029 10 16.0934 0 0
8:15 am 08:15 Cloudy 33 0.8 23 -5.1 65 65 ESE 16 26 30.39 1029 10 16.0934 0 0
8:35 am 08:35 Cloudy 34 0.9 23 -5 65 65 ESE 16 26 30.39 1029 10 16.0934 0 0
8:55 am 08:55 Cloudy 34 1 23 -5 65 65 ESE 17 28 30.39 1029 10 16.0934 0 0
9:15 am 09:15 Cloudy 35 1.4 23 -4.8 64 64 ESE 17 28 30.39 1029 10 16.0934 0 0
9:35 am 09:35 Cloudy 35 1.8 23 -5 61 61 SE 17 28 30.36 1028 10 16.0934 0 0
9:55 am 09:55 Cloudy 37 2.5 23 -5 58 58 SE 20 31 30.33 1027 10 16.0934 0 0
10:15 am 10:15 Cloudy 38 3.1 23 -5.1 55 55 SE 17 28 30.33 1027 10 16.0934 0 0
10:35 am 10:35 Cloudy 38 3.5 23 -5 54 54 SE 20 31 30.33 1027 10 16.0934 0 0
10:55 am 10:55 Cloudy 38 3.5 23 -5 54 54 SE 17 28 30.33 1027 10 16.0934 0 0
11:15 am 11:15 Cloudy 39 3.8 24 -4.7 54 54 SSE 16 26 30.33 1027 10 16.0934 0 0
11:35 am 11:35 Cloudy 40 4.6 23 -4.8 51 51 SE 17 28 30.3 1026 10 16.0934 0 0
11:55 am 11:55 Cloudy 41 5 22 -5.5 47 47 SE 17 28 30.27 1025 10 16.0934 0 0
12:15 pm 12:15 Cloudy 42 5.6 23 -5.1 46 46 SSE 15 24 30.27 1025 10 16.0934 0 0
12:35 pm 12:35 Cloudy 44 6.5 23 -5 44 44 SE 16 26 30.24 1024 10 16.0934 0 0
12:55 pm 12:55 Cloudy 44 6.6 24 -4.6 45 45 SE 17 28 30.24 1024 10 16.0934 0 0
1:15 pm 13:15 Cloudy 46 7.5 24 -4.2 44 44 SSE 16 26 30.24 1024 10 16.0934 0 0
1:35 pm 13:35 Cloudy 47 8.1 23 -4.8 40 40 SSE 16 26 30.18 1022 10 16.0934 0 0
1:55 pm 13:55 Cloudy 48 8.8 24 -4.5 39 39 SE 15 24 30.18 1022 10 16.0934 0 0
2:15 pm 14:15 Cloudy 50 10 24 -4.5 36 36 SSE 22 35 30.15 1021 10 16.0934 0 0
2:35 pm 14:35 Cloudy 51 10.8 24 -4.6 34 34 SSE 20 31 30.12 1020 10 16.0934 0 0
2:55 pm 14:55 Cloudy 52 11 24 -4.7 33 33 SSE 18 30 30.12 1020 10 16.0934 0 0
3:15 pm 15:15 Cloudy 52 11.3 24 -4.5 33 33 S 21 33 30.09 1019 10 16.0934 0 0
3:35 pm 15:35 Cloudy 51 10.8 24 -4.6 34 34 SSE 20 31 30.09 1019 10 16.0934 0 0
3:55 pm 15:55 Cloudy 51 10.5 24 -4.5 35 35 SSE 17 28 30.09 1019 10 16.0934 0 0
4:15 pm 16:15 Cloudy 51 10.5 24 -4.3 35 35 S 15 24 30.09 1019 10 16.0934 0 0
4:35 pm 16:35 Cloudy 51 10.7 25 -4.1 35 35 SSE 20 31 30.09 1019 10 16.0934 0 0
4:55 pm 16:55 Cloudy 51 10.5 25 -3.8 37 37 SSE 20 31 30.09 1019 10 16.0934 0 0
5:15 pm 17:15 Mostly Cloudy 51 10.6 25 -3.8 36 36 SSE 16 26 30.06 1018 10 16.0934 0 0
5:35 pm 17:35 Mostly Cloudy 51 10.5 25 -4 36 36 SSE 18 30 30.06 1018 10 16.0934 0 0
5:55 pm 17:55 Cloudy 50 10.1 25 -4.1 37 37 SSE 17 28 30.06 1018 10 16.0934 0 0
6:15 pm 18:15 Cloudy 50 10.1 25 -4 37 37 SSE 16 26 30.06 1018 10 16.0934 0 0
6:35 pm 18:35 Cloudy 50 9.9 25 -3.8 38 38 SE 18 30 30.06 1018 10 16.0934 0 0
6:55 pm 18:55 Cloudy 49 9.7 25 -4 38 38 SSE 17 28 30.09 1019 10 16.0934 0 0
7:15 pm 19:15 Cloudy 49 9.7 25 -4 38 38 SSE 14 22 30.09 1019 10 16.0934 0 0
7:35 pm 19:35 Cloudy 50 9.8 25 -3.8 38 38 SSE 13 20 30.06 1018 10 16.0934 0 0
7:55 pm 19:55 Cloudy 50 10 26 -3.5 39 39 SE 14 22 30.03 1017 10 16.0934 0 0
8:15 pm 20:15 Cloudy 50 10 26 -3.6 39 39 SSE 10 17 30.06 1018 10 16.0934 0 0
8:35 pm 20:35 Cloudy 50 9.8 26 -3.6 39 39 SE 14 22 30.03 1017 10 16.0934 0 0
8:55 pm 20:55 Cloudy 50 10 25 -3.8 38 38 SSE 15 24 30.03 1017 10 16.0934 0 0
9:15 pm 21:15 Cloudy 50 9.8 26 -3.6 39 39 SSE 15 24 30.03 1017 10 16.0934 0 0
9:35 pm 21:35 Cloudy 49 9.6 26 -3.3 40 40 SSE 14 22 30.09 1019 10 16.0934 0 0
9:55 pm 21:55 Partly Cloudy 48 9 27 -2.9 43 43 SSE 14 22 30.06 1018 10 16.0934 0 0
10:15 pm 22:15 Clear 47 8.6 28 -2.5 46 46 SSE 14 22 30.06 1018 10 16.0934 0 0
10:35 pm 22:35 Clear 47 8.6 29 -1.6 49 49 SSE 15 24 30.06 1018 10 16.0934 0 0
10:55 pm 22:55 Clear 48 8.8 32 -0.1 54 54 SSE 18 30 30.03 1017 10 16.0934 0 0
11:15 pm 23:15 Partly Cloudy 47 8.6 32 0.2 56 56 SSE 20 31 30.06 1018 10 16.0934 0 0
11:35 pm 23:35 Clear 47 8.5 33 0.5 57 57 S 18 30 30.03 1017 10 16.0934 0 0
11:55 pm 23:55 Clear 47 8.3 33 0.3 57 57 SSE 16 26 30.03 1017 10 16.0934 0 0

Powered by AerisWeather